When you browse on this site, cookies collect data to enhance your experience and personalize the content and advertising you see.
Visit our Privacy Policy to learn more. By continuing to use the site, you agree to this use of cookies and data.
  • în România
  • Lista ţărilor
  • Pe 7 zile
  • Temperatura apei
  • Meteo pe hartă
  • Widget-uri
  • user-avatar
    Intrare

    Meteo pe oră la Encarnación

    Astăzi, 5 Iunie, Vineri

    Timp Temperatura Precipitaţii Vânt Presiune Umiditate
    00:00 +20°C° 1.2 mm 2 m/s 753 mmHg 98%
    01:00 +20°C° 1.2 mm 2 m/s 753 mmHg 98%
    02:00 +20°C° 1.2 mm 2 m/s 753 mmHg 98%
    03:00 +20°C° 2.3 mm 2 m/s 752 mmHg 98%
    04:00 +20°C° 2.3 mm 2 m/s 752 mmHg 98%
    05:00 +20°C° 2.3 mm 2 m/s 752 mmHg 98%
    06:00 +20°C° 4 mm 3 m/s 752 mmHg 98%
    07:00 +19°C° 4 mm 3 m/s 752 mmHg 98%
    08:00 +19°C° 4 mm 4 m/s 752 mmHg 98%
    09:00 +18°C° 4.7 mm 3 m/s 752 mmHg 98%
    10:00 +18°C° 4.7 mm 3 m/s 753 mmHg 98%
    11:00 +17°C° 4.7 mm 3 m/s 753 mmHg 97%
    12:00 +17°C° 4.1 mm 3 m/s 753 mmHg 97%
    13:00 +17°C° 4.1 mm 3 m/s 752 mmHg 97%
    14:00 +16°C° 4.1 mm 3 m/s 752 mmHg 97%
    15:00 +16°C° 0.7 mm 3 m/s 752 mmHg 96%
    16:00 +14°C° 0.7 mm 3 m/s 753 mmHg 96%
    17:00 +14°C° 0.7 mm 3 m/s 753 mmHg 95%
    18:00 +13°C° 0 mm 3 m/s 753 mmHg 94%
    19:00 +14°C° 0 mm 2 m/s 754 mmHg 94%
    20:00 +14°C° 0 mm 2 m/s 754 mmHg 93%
    21:00 +14°C° 0.1 mm 2 m/s 754 mmHg 93%
    22:00 +14°C° 0.1 mm 2 m/s 754 mmHg 94%
    23:00 +13°C° 0.1 mm 2 m/s 754 mmHg 94%

    Mâine, 6 Iunie, Sâmbătă

    Timp Temperatura Precipitaţii Vânt Presiune Umiditate
    00:00 +13°C° 0 mm 2 m/s 754 mmHg 94%
    01:00 +12°C° 0 mm 2 m/s 754 mmHg 95%
    02:00 +10°C° 0 mm 2 m/s 754 mmHg 95%
    03:00 +10°C° 0 mm 2 m/s 754 mmHg 95%
    04:00 +10°C° 0 mm 2 m/s 754 mmHg 95%
    05:00 +10°C° 0 mm 3 m/s 754 mmHg 95%
    06:00 +10°C° 0 mm 3 m/s 754 mmHg 94%
    07:00 +11°C° 0 mm 3 m/s 755 mmHg 92%
    08:00 +12°C° 0 mm 3 m/s 755 mmHg 91%
    09:00 +13°C° 0 mm 4 m/s 755 mmHg 83%
    10:00 +15°C° 0 mm 4 m/s 755 mmHg 76%
    11:00 +17°C° 0 mm 4 m/s 755 mmHg 68%
    12:00 +18°C° 0 mm 4 m/s 754 mmHg 66%
    13:00 +19°C° 0 mm 4 m/s 754 mmHg 64%
    14:00 +19°C° 0 mm 4 m/s 753 mmHg 62%
    15:00 +18°C° 0 mm 3 m/s 753 mmHg 68%
    16:00 +17°C° 0 mm 2 m/s 753 mmHg 75%
    17:00 +15°C° 0 mm 1 m/s 753 mmHg 82%
    18:00 +15°C° 0 mm 1 m/s 754 mmHg 85%
    19:00 +14°C° 0 mm 1 m/s 754 mmHg 87%
    20:00 +13°C° 0 mm 1 m/s 755 mmHg 90%
    21:00 +13°C° 0 mm 1 m/s 755 mmHg 91%
    22:00 +12°C° 0 mm 1 m/s 755 mmHg 92%
    23:00 +12°C° 0 mm 1 m/s 755 mmHg 93%

    Poimâine, 7 Iunie, Duminică

    Timp Temperatura Precipitaţii Vânt Presiune Umiditate
    00:00 +12°C° 0 mm 1 m/s 755 mmHg 94%
    01:00 +11°C° 0 mm 1 m/s 755 mmHg 95%
    02:00 +11°C° 0 mm 1 m/s 755 mmHg 96%
    03:00 +11°C° 0 mm 1 m/s 755 mmHg 96%
    04:00 +10°C° 0 mm 1 m/s 755 mmHg 96%
    05:00 +10°C° 0 mm 1 m/s 755 mmHg 96%
    06:00 +11°C° 0 mm 1 m/s 756 mmHg 93%
    07:00 +12°C° 0 mm 1 m/s 756 mmHg 91%
    08:00 +13°C° 0 mm 1 m/s 757 mmHg 88%
    09:00 +15°C° 0 mm 1 m/s 756 mmHg 79%
    10:00 +19°C° 0 mm 1 m/s 756 mmHg 71%
    11:00 +21°C° 0 mm 1 m/s 756 mmHg 63%
    12:00 +22°C° 0 mm 1 m/s 756 mmHg 60%
    13:00 +23°C° 0 mm 1 m/s 755 mmHg 58%
    14:00 +23°C° 0 mm 1 m/s 754 mmHg 56%
    15:00 +22°C° 0 mm 1 m/s 754 mmHg 60%
    16:00 +21°C° 0 mm 1 m/s 754 mmHg 63%
    17:00 +20°C° 0 mm 1 m/s 754 mmHg 67%
    18:00 +19°C° 0 mm 1 m/s 754 mmHg 71%
    19:00 +17°C° 0 mm 2 m/s 754 mmHg 74%
    20:00 +16°C° 0 mm 2 m/s 754 mmHg 78%
    21:00 +16°C° 0 mm 2 m/s 754 mmHg 77%
    22:00 +17°C° 0 mm 2 m/s 754 mmHg 77%
    23:00 +17°C° 0 mm 2 m/s 754 mmHg 76%

    8 Iunie, Luni

    Timp Temperatura Precipitaţii Vânt Presiune Umiditate
    00:00 +17°C° 0.4 mm 2 m/s 754 mmHg 83%
    01:00 +17°C° 0.4 mm 2 m/s 753 mmHg 89%
    02:00 +17°C° 0.4 mm 2 m/s 753 mmHg 96%
    03:00 +17°C° 0.3 mm 2 m/s 753 mmHg 97%
    04:00 +18°C° 0.3 mm 2 m/s 753 mmHg 97%
    05:00 +18°C° 0.3 mm 2 m/s 752 mmHg 98%
    06:00 +19°C° 0.3 mm 2 m/s 753 mmHg 98%
    07:00 +20°C° 0.3 mm 2 m/s 753 mmHg 97%
    08:00 +21°C° 0.3 mm 2 m/s 753 mmHg 97%
    09:00 +23°C° 0.6 mm 2 m/s 753 mmHg 96%
    10:00 +24°C° 0.6 mm 2 m/s 754 mmHg 95%
    11:00 +25°C° 0.6 mm 2 m/s 754 mmHg 94%
    12:00 +24°C° 0.4 mm 2 m/s 753 mmHg 94%
    13:00 +24°C° 0.4 mm 2 m/s 752 mmHg 95%
    14:00 +24°C° 0.4 mm 1 m/s 751 mmHg 96%
    15:00 +24°C° 0.1 mm 1 m/s 751 mmHg 97%
    16:00 +23°C° 0.1 mm 1 m/s 751 mmHg 97%
    17:00 +23°C° 0.1 mm 1 m/s 751 mmHg 98%
    18:00 +23°C° 0.2 mm 1 m/s 751 mmHg 98%
    19:00 +23°C° 0.2 mm 1 m/s 751 mmHg 98%
    20:00 +22°C° 0.2 mm 1 m/s 752 mmHg 98%
    21:00 +22°C° 0.7 mm 1 m/s 752 mmHg 98%
    22:00 +22°C° 0.7 mm 1 m/s 752 mmHg 98%
    23:00 +20°C° 0.7 mm 0 m/s 751 mmHg 98%

    9 Iunie, Marţi

    Timp Temperatura Precipitaţii Vânt Presiune Umiditate
    00:00 +22°C° 0.3 mm 1 m/s 751 mmHg 98%
    01:00 +22°C° 0.3 mm 1 m/s 751 mmHg 98%
    02:00 +22°C° 0.3 mm 1 m/s 751 mmHg 98%
    03:00 +22°C° 1 mm 1 m/s 751 mmHg 98%
    04:00 +22°C° 1 mm 1 m/s 750 mmHg 98%
    05:00 +21°C° 1 mm 2 m/s 750 mmHg 99%
    06:00 +21°C° 1.5 mm 2 m/s 751 mmHg 98%
    07:00 +21°C° 1.5 mm 2 m/s 751 mmHg 98%
    08:00 +23°C° 1.5 mm 2 m/s 751 mmHg 98%
    09:00 +24°C° 1.1 mm 2 m/s 751 mmHg 97%
    10:00 +24°C° 1.1 mm 2 m/s 751 mmHg 95%
    11:00 +25°C° 1.1 mm 1 m/s 751 mmHg 94%
    12:00 +26°C° 0.7 mm 1 m/s 750 mmHg 94%
    13:00 +26°C° 0.7 mm 1 m/s 749 mmHg 93%
    14:00 +26°C° 0.7 mm 1 m/s 749 mmHg 93%
    15:00 +25°C° 1.2 mm 1 m/s 749 mmHg 95%
    16:00 +25°C° 1.2 mm 1 m/s 749 mmHg 96%
    17:00 +24°C° 1.2 mm 1 m/s 749 mmHg 97%
    18:00 +23°C° 0.7 mm 2 m/s 749 mmHg 98%
    19:00 +21°C° 0.7 mm 2 m/s 749 mmHg 98%
    20:00 +21°C° 0.7 mm 2 m/s 749 mmHg 98%
    21:00 +20°C° 0.9 mm 2 m/s 750 mmHg 98%
    22:00 +21°C° 0.9 mm 1 m/s 750 mmHg 98%
    23:00 +20°C° 0.9 mm 1 m/s 750 mmHg 99%

    10 Iunie, Miercuri

    Timp Temperatura Precipitaţii Vânt Presiune Umiditate
    00:00 +20°C° 1.2 mm 1 m/s 749 mmHg 99%
    01:00 +20°C° 1.2 mm 1 m/s 749 mmHg 99%
    02:00 +20°C° 1.2 mm 1 m/s 749 mmHg 99%
    03:00 +20°C° 0.4 mm 1 m/s 749 mmHg 99%
    04:00 +21°C° 0.4 mm 1 m/s 749 mmHg 99%
    05:00 +21°C° 0.4 mm 1 m/s 749 mmHg 99%
    06:00 +19°C° 0.7 mm 0 m/s 749 mmHg 99%
    07:00 +20°C° 0.7 mm 0 m/s 749 mmHg 98%
    08:00 +20°C° 0.7 mm 0 m/s 749 mmHg 98%
    09:00 +20°C° 1.4 mm 0 m/s 749 mmHg 98%
    10:00 +21°C° 1.4 mm 0 m/s 749 mmHg 98%
    11:00 +21°C° 1.4 mm 0 m/s 749 mmHg 98%
    12:00 +21°C° 0.9 mm 0 m/s 749 mmHg 98%
    13:00 +23°C° 0.9 mm 1 m/s 748 mmHg 98%
    14:00 +23°C° 0.9 mm 1 m/s 748 mmHg 98%
    15:00 +23°C° 0.7 mm 1 m/s 748 mmHg 98%
    16:00 +22°C° 0.7 mm 1 m/s 749 mmHg 99%
    17:00 +22°C° 0.7 mm 1 m/s 749 mmHg 99%
    18:00 +22°C° 0.3 mm 1 m/s 749 mmHg 99%
    19:00 +22°C° 0.3 mm 1 m/s 750 mmHg 98%
    20:00 +20°C° 0.3 mm 2 m/s 750 mmHg 98%
    21:00 +21°C° 0.2 mm 1 m/s 751 mmHg 98%
    22:00 +21°C° 0.2 mm 1 m/s 751 mmHg 98%
    23:00 +21°C° 0.2 mm 1 m/s 751 mmHg 98%
    Arată mai mult